GFSSE_700_temp_132.txt.gz
Temp
13 12 11 11 12 12 11 11 10 9 9 8 8 8 7 7 7 7 7 7 7 6 7 7 6 6 6 6 6 6 6 6 6 6 6 5 5 5 6 6 6 5 6
12 12 11 12 12 12 12 11 11 10 10 9 9 8 7 7 7 7 7 7 6 6 6 7 6 6 6 6 6 6 6 6 6 5 5 6 5 5 6 6 6 5 5
12 11 11 11 11 11 12 11 11 10 10 10 9 9 8 8 7 7 7 6 6 6 6 6 6 6 6 6 6 6 5 6 5 6 6 5 4 5 5 5 5 5 5
12 11 11 11 11 11 11 11 11 10 10 10 9 8 8 8 7 7 6 6 6 6 5 6 6 6 6 6 6 6 5 6 6 6 6 5 5 5 5 5 5 5 5
12 11 11 11 11 11 11 11 11 10 10 10 9 9 8 8 8 7 6 6 5 5 5 5 6 6 6 5 5 5 5 5 6 6 5 5 5 5 5 5 5 5 5
12 11 11 11 11 11 11 11 11 11 10 10 9 9 9 8 7 6 6 6 5 5 5 5 5 5 5 5 5 5 6 5 5 5 5 5 5 4 4 4 5 5 5
12 11 11 11 11 11 10 10 10 10 10 10 9 9 8 7 6 6 6 6 5 5 5 4 5 4 5 5 5 5 5 5 5 5 5 5 4 4 4 5 5 5 5
11 11 11 11 11 11 10 10 10 10 10 10 9 9 8 7 6 6 6 5 5 5 5 4 4 4 5 5 6 5 5 5 5 5 4 4 4 4 4 4 5 5 5
11 11 11 10 10 10 10 10 10 10 10 9 9 8 8 7 6 6 6 5 5 5 5 4 4 4 4 5 5 5 5 4 4 4 4 4 4 4 4 4 4 4 5
11 11 10 10 10 10 10 10 10 10 10 9 8 8 8 7 6 6 5 5 5 5 4 4 3 3 4 5 5 5 5 5 4 4 4 4 4 4 4 4 4 5 5
11 11 10 10 10 10 10 10 10 9 9 9 8 8 8 7 7 6 6 5 5 5 5 4 4 3 3 3 3 5 4 4 4 4 4 4 4 4 4 4 4 5 5
10 10 10 10 10 10 10 10 10 9 9 9 9 8 8 7 7 6 6 5 5 5 4 4 4 4 3 3 3 4 3 4 3 3 3 4 4 4 3 3 4 4 5
10 10 9 9 9 9 10 10 10 9 9 9 8 8 8 7 7 6 6 5 5 5 5 4 4 3 4 4 4 4 3 3 3 3 3 4 4 3 3 3 3 3 4
9 9 9 9 9 9 9 9 9 9 9 9 8 8 7 7 7 6 6 5 4 4 4 4 4 4 4 4 4 3 3 3 3 3 3 3 3 3 3 3 3 3 4
8 8 8 8 9 9 9 9 9 9 9 8 8 8 7 7 7 6 6 5 4 3 3 4 3 3 4 3 3 3 3 3 2 2 2 3 3 3 3 3 3 3 4
7 7 7 8 8 8 8 8 8 8 8 8 8 8 7 7 7 6 6 6 5 4 3 3 3 3 3 3 3 3 3 3 3 3 2 2 3 3 3 3 3 3 4
6 7 6 7 7 7 8 8 8 8 8 8 8 8 7 7 7 6 6 6 5 4 3 3 3 3 3 3 3 3 3 2 2 3 2 2 2 2 3 3 3 3 4
6 6 6 7 7 7 7 8 8 8 8 8 8 8 7 7 7 7 6 6 6 5 4 4 3 3 3 3 3 3 2 2 2 2 3 3 1 2 2 3 3 3 3
6 6 6 7 7 7 7 7 8 8 8 8 8 7 7 7 7 7 6 6 6 6 5 4 4 3 3 2 2 3 2 2 2 2 2 2 1 2 2 2 3 3 3
6 7 6 7 7 7 7 7 7 7 7 8 7 7 7 7 7 7 7 6 6 6 6 5 4 3 3 2 2 2 2 2 2 2 2 2 1 1 2 2 2 3 3
5 6 6 7 7 7 7 7 7 7 7 8 7 7 7 7 7 7 7 6 6 6 6 5 5 4 3 3 3 2 2 2 2 2 2 1 2 1 2 2 2 3 3
5 5 6 6 7 7 7 7 7 7 7 7 7 7 7 7 7 7 7 7 6 6 6 6 5 5 5 3 3 2 2 2 2 2 2 2 1 1 1 2 2 3 3
4 4 5 6 6 7 7 7 7 7 7 7 7 7 7 7 7 7 7 7 6 6 6 6 5 5 5 4 3 2 2 3 3 3 3 3 2 2 1 1 2 3 3
4 4 5 5 6 7 7 7 7 7 7 8 8 8 7 7 7 7 7 7 7 7 6 6 6 5 5 5 4 3 3 2 2 3 2 2 2 1 1 0 1 2 2
3 4 5 5 5 6 7 7 7 7 7 8 8 8 7 7 7 7 7 7 7 7 7 6 6 6 5 5 5 3 2 2 2 2 3 2 2 2 2 1 1 1 2
3 4 5 5 5 6 7 7 8 8 7 7 8 7 7 7 7 6 7 7 7 7 7 6 6 5 5 5 5 5 3 2 2 2 2 2 2 2 2 2 1 0 1

GFSSE_700_temp_135.txt.gz
Temp
13 12 12 12 12 12 11 10 9 9 9 8 8 8 7 7 7 7 7 7 7 6 6 6 7 6 6 6 6 6 6 6 6 6 6 4 3 4 5 5 5 5 6
11 12 12 12 12 12 11 10 10 10 10 9 8 8 8 7 7 7 7 7 7 6 6 6 7 6 6 6 6 6 6 6 6 5 5 4 4 4 4 5 5 5 5
12 11 11 12 12 12 11 11 10 10 10 9 9 8 8 7 7 7 7 7 6 6 6 6 6 6 6 6 6 6 6 6 6 6 6 5 5 4 4 5 5 5 5
12 12 12 12 12 11 11 11 11 10 10 9 9 9 8 8 7 7 7 6 6 6 6 6 6 6 6 5 6 5 5 5 5 6 6 5 5 5 5 5 5 5 5
12 12 12 11 11 11 11 11 11 10 10 9 9 9 9 8 8 7 7 6 6 6 5 5 6 5 5 5 5 5 5 5 5 5 5 5 5 5 5 5 5 5 5
12 11 11 11 11 11 11 11 10 10 10 10 10 9 9 8 8 7 7 6 6 5 5 5 5 5 5 5 5 5 5 5 5 5 5 5 5 5 5 5 5 5 5
11 11 11 11 11 10 10 10 10 10 10 10 9 9 9 8 7 7 6 6 5 5 5 5 5 5 5 4 5 4 4 5 4 5 5 5 4 4 4 4 5 4 5
11 10 11 11 10 10 10 10 10 10 10 9 9 9 9 8 8 7 6 6 5 5 5 4 4 4 4 4 5 4 4 5 5 5 5 5 4 4 4 4 4 4 4
10 10 10 10 10 10 10 10 10 9 9 9 9 9 9 8 8 7 6 5 5 5 5 4 4 4 4 4 5 4 4 5 5 5 5 4 4 4 4 4 4 4 4
10 10 10 10 10 10 10 10 10 9 9 9 9 9 9 8 8 7 6 5 5 5 5 4 3 4 4 5 4 5 5 5 4 5 4 4 4 4 4 4 4 4 5
9 10 10 10 10 10 10 10 10 9 9 9 9 9 9 8 8 7 6 6 5 5 5 4 4 3 4 4 4 4 4 5 5 5 4 4 4 4 4 4 3 4 4
9 9 9 9 9 10 10 10 9 9 9 9 9 9 9 8 8 7 7 6 5 5 4 4 3 3 3 4 3 3 4 5 4 4 4 4 4 3 3 3 3 4 4
8 9 9 9 9 9 9 9 9 9 9 8 9 9 8 8 8 7 7 6 5 5 5 4 4 3 3 3 3 3 3 4 3 4 4 4 3 3 3 3 3 3 4
7 8 8 8 9 9 9 9 9 8 8 8 8 8 8 8 8 7 7 6 6 5 5 4 4 3 3 3 3 3 3 3 2 3 3 3 3 3 3 3 3 3 3
7 7 7 8 8 8 8 9 9 8 8 8 8 8 8 7 7 7 7 7 6 5 5 4 4 3 3 3 3 3 3 3 3 3 3 3 3 3 2 3 3 3 3
7 7 6 7 7 8 8 8 8 8 8 8 8 8 8 7 7 7 6 6 6 6 5 4 4 3 3 3 3 3 3 3 2 2 2 2 2 2 2 2 3 3 3
6 6 7 6 7 7 7 8 8 8 7 7 8 7 7 7 7 7 6 6 6 6 5 4 3 3 3 3 3 3 3 3 2 2 3 2 2 2 2 2 2 3 3
6 6 6 5 5 6 7 7 7 7 7 7 7 7 7 7 7 7 6 6 6 6 6 5 4 4 3 3 3 3 3 3 2 2 2 2 3 2 2 2 2 3 3
6 6 6 6 6 5 6 6 6 7 7 7 7 7 7 7 7 7 6 6 6 6 6 6 5 4 4 3 3 3 3 2 2 2 2 3 2 2 2 2 2 2 3
6 6 6 6 6 6 6 6 7 7 7 7 7 7 7 7 7 7 6 6 6 6 6 6 6 5 4 3 3 2 2 3 2 2 3 3 2 2 2 1 2 2 3
5 6 6 5 6 7 6 6 7 7 7 7 7 8 7 7 7 7 7 6 6 6 6 6 6 6 5 5 3 3 3 3 3 2 2 2 2 1 1 2 1 2 2
3 4 5 5 5 7 7 7 7 7 7 7 7 7 7 7 7 7 7 6 6 6 6 6 6 6 6 5 5 3 3 3 3 2 2 2 2 2 1 1 0 2 2
2 3 4 5 5 6 6 6 7 7 7 7 7 7 7 7 7 7 7 7 6 6 6 6 6 6 6 5 5 4 4 4 3 2 2 2 2 2 2 1 1 1 2
-1 1 3 4 5 5 6 6 6 7 7 7 7 7 7 7 7 7 7 7 6 6 6 6 6 6 6 6 5 5 5 4 4 3 2 2 2 2 2 1 2 1 1
-2 -0 1 3 4 5 5 7 7 7 7 7 7 7 7 7 7 7 7 7 6 6 6 6 6 6 6 6 5 5 5 5 5 3 2 2 2 2 1 1 2 1 1
-2 -1 1 3 4 4 5 6 7 7 7 7 7 7 7 8 7 7 7 7 6 6 6 6 6 6 6 6 5 5 5 5 5 3 2 2 2 2 2 1 1 2 1

GFSSE_700_temp_138.txt.gz
Temp
12 12 12 12 12 12 12 11 11 11 10 8 8 7 7 7 7 7 7 7 7 7 6 6 7 7 7 6 6 6 6 6 6 6 6 6 6 4 4 4 4 5 5
12 12 12 12 12 12 12 11 11 10 10 9 8 8 7 7 7 7 7 7 7 7 6 6 7 6 6 6 6 6 6 6 6 6 6 6 4 6 3 4 4 4 5
11 11 11 12 12 12 12 11 11 10 9 9 9 8 7 7 7 7 7 7 7 6 6 6 6 6 6 6 5 6 6 6 6 6 6 6 6 6 4 4 4 5 5
11 11 11 12 12 12 11 11 11 10 9 9 9 8 8 7 7 7 7 7 6 6 6 6 6 6 6 5 5 5 5 5 6 5 5 5 5 5 5 5 4 5 5
12 11 11 11 11 11 11 11 10 10 9 9 9 9 8 8 7 7 7 6 6 6 6 6 6 5 5 5 5 5 5 5 5 4 5 4 5 5 5 4 4 4 4
11 11 11 11 11 11 11 10 10 10 10 9 9 8 9 8 8 7 7 6 6 5 6 6 5 5 5 5 5 5 5 5 4 4 4 4 4 4 4 4 4 4 4
10 11 11 11 10 10 10 10 10 10 10 9 9 8 8 8 8 7 7 6 6 5 5 5 5 5 5 5 5 4 4 5 4 4 5 4 4 4 4 4 4 4 4
10 11 11 10 10 10 10 10 10 10 10 9 8 8 8 8 8 8 7 7 6 5 5 5 5 5 5 4 4 4 4 4 5 4 4 5 4 4 4 4 4 4 4
10 10 10 10 10 10 10 10 10 9 9 9 8 8 8 8 8 7 7 7 6 5 5 4 4 4 4 4 4 5 5 3 4 4 4 4 5 4 4 4 4 4 4
10 10 10 10 10 10 10 10 10 9 9 9 9 8 8 8 7 7 7 7 6 5 5 4 4 4 4 4 4 4 4 4 4 4 4 4 4 4 4 4 4 4 4
9 9 9 10 10 10 10 10 10 10 9 9 9 8 8 8 7 7 7 7 6 5 5 5 4 4 3 3 4 4 4 4 4 5 4 4 4 4 4 4 4 4 4
9 9 9 9 9 9 10 10 9 9 9 9 9 9 8 8 7 7 7 7 6 6 5 5 4 4 4 3 4 4 4 4 4 4 4 4 4 4 4 4 4 4 4
9 9 8 9 9 9 9 9 9 9 9 9 8 8 8 8 7 7 7 7 6 6 5 4 4 4 4 4 3 3 3 3 4 4 4 4 4 4 4 3 3 4 4
8 9 8 8 8 9 8 8 9 9 9 8 8 8 8 8 7 7 7 7 6 6 5 5 4 4 4 3 3 3 3 3 3 3 3 4 4 3 3 3 3 3 3
8 8 8 8 8 8 8 8 8 8 9 8 8 8 7 8 7 7 7 7 6 6 5 5 4 4 4 3 3 3 3 3 3 2 3 3 3 3 3 3 3 3 3
7 7 7 8 8 7 7 8 8 7 8 8 8 7 7 7 7 7 7 7 7 6 6 5 4 4 4 3 3 3 3 3 3 3 3 3 2 2 3 3 3 3 3
7 7 7 6 7 7 7 7 7 7 7 8 8 7 7 7 7 7 7 7 7 7 6 5 5 4 4 4 3 3 3 3 3 3 3 2 2 2 3 3 2 3 3
7 7 7 6 6 6 7 7 7 7 7 7 7 7 7 7 7 7 7 7 6 6 6 6 5 5 4 3 3 3 3 3 3 3 3 2 2 2 2 2 2 2 3
7 6 7 7 6 6 6 7 7 7 7 7 7 7 7 7 7 7 7 7 6 6 6 6 6 5 4 4 3 3 3 3 3 3 3 2 3 2 2 2 2 2 2
5 6 5 6 7 6 6 6 7 7 7 7 7 7 7 7 7 7 7 7 7 6 6 6 6 6 5 4 4 3 3 3 3 3 3 3 3 2 2 2 2 1 1
3 4 6 4 5 5 6 6 6 7 7 7 7 7 6 7 7 7 7 7 7 7 6 6 6 6 6 5 5 4 3 3 3 3 3 3 2 2 2 2 2 1 1
1 2 3 4 3 4 4 5 6 7 7 7 7 7 7 7 7 7 7 7 7 7 6 6 6 6 6 6 5 4 4 4 4 3 3 3 2 2 2 2 1 1 2
0 -0 0 1 2 3 3 4 5 6 6 7 7 7 7 7 7 7 7 7 7 6 7 6 6 6 6 6 6 5 5 5 4 3 3 2 2 2 2 2 1 1 1
-1 -1 0 0 0 1 2 2 4 5 6 7 7 7 7 7 7 7 7 7 7 7 6 6 6 6 6 6 6 5 5 5 5 4 3 3 3 2 2 2 2 2 1
-0 -0 -0 -0 -0 -1 1 2 3 5 4 4 7 7 7 7 7 7 7 7 7 7 7 6 6 6 6 6 6 5 6 5 5 4 4 2 3 2 2 2 2 2 2
-1 -1 -1 -1 -1 -2 0 2 3 5 5 5 4 7 7 7 7 7 7 7 7 7 7 7 6 6 6 6 6 5 6 6 5 5 4 3 2 2 2 2 2 2 2

GFSSE_700_temp_141.txt.gz
Temp
11 12 12 12 12 12 12 12 11 9 9 8 8 8 8 7 7 7 7 7 7 7 6 6 7 7 7 6 6 6 6 6 6 6 6 5 6 6 5 6 4 4 4
11 12 12 12 11 12 12 12 11 10 10 9 8 8 8 7 7 7 7 6 7 7 6 6 6 6 6 6 6 6 6 6 6 6 5 5 6 5 5 5 4 4 4
12 12 11 11 11 12 12 12 11 10 10 9 8 8 7 7 7 7 7 7 6 6 6 6 6 6 6 6 6 6 6 6 6 6 5 6 5 5 6 5 4 4 4
12 12 11 11 11 12 12 11 11 10 10 10 9 8 7 7 7 7 7 7 6 6 6 6 6 6 6 6 6 5 5 5 6 6 6 5 5 6 5 5 5 4 4
12 11 11 11 11 11 11 11 10 10 10 10 9 8 8 7 7 7 7 7 6 6 6 6 6 6 5 6 5 5 5 5 5 5 5 5 5 5 5 4 4 4 4
11 11 11 11 11 11 11 10 10 10 10 9 9 9 8 8 7 7 7 7 6 6 6 6 6 6 5 5 5 5 5 5 5 5 6 5 4 5 5 4 4 4 4
11 10 11 11 11 11 11 10 10 10 9 9 9 9 8 8 7 7 7 7 6 6 6 6 5 5 5 5 5 5 5 5 5 5 5 5 4 5 5 4 4 4 4
11 10 11 11 11 11 10 10 10 10 9 9 9 9 8 8 7 7 7 6 6 6 6 5 5 5 5 5 5 5 5 5 4 4 5 5 4 4 4 4 4 4 4
10 10 10 10 10 10 10 10 10 10 9 9 8 8 8 8 8 7 6 6 6 6 6 5 5 5 5 4 5 4 4 4 4 4 4 4 4 4 4 4 4 4 4
10 10 10 10 10 10 10 10 10 10 9 9 9 8 8 8 8 7 7 6 6 5 5 5 5 5 4 4 4 4 4 4 4 4 5 4 4 4 4 4 4 4 4
10 9 9 10 10 10 10 10 10 10 10 9 9 9 8 8 8 7 7 6 6 5 5 5 5 5 4 4 4 4 4 4 4 4 4 4 4 4 4 4 4 4 4
9 9 9 9 10 9 9 9 9 9 9 9 9 9 9 8 8 7 7 7 6 6 5 5 5 4 4 4 4 4 4 5 4 3 4 4 4 4 4 4 4 4 4
8 8 9 9 9 9 9 9 8 9 9 9 9 9 8 8 7 7 7 7 6 6 5 5 5 5 5 4 4 4 4 4 4 4 4 4 4 3 3 4 3 4 4
8 8 8 8 9 9 8 8 8 8 8 9 9 9 8 8 8 7 7 7 7 6 5 5 5 5 5 4 3 3 3 3 3 3 4 3 3 3 3 3 3 3 4
7 7 7 7 7 8 8 8 8 8 8 8 8 8 8 8 7 7 7 7 7 7 6 5 5 5 4 4 4 3 3 3 3 3 3 3 3 3 3 3 3 3 3
7 7 7 7 7 8 8 8 8 8 8 8 8 8 8 8 7 7 7 7 7 7 6 6 5 5 5 4 4 4 4 3 3 3 3 3 3 3 3 3 3 3 3
7 7 7 8 7 6 7 8 8 8 8 7 7 7 8 7 7 7 7 7 7 7 7 6 5 5 5 4 4 4 4 4 3 3 3 3 3 3 2 2 2 2 3
4 7 7 7 7 7 7 7 7 8 8 7 7 7 7 7 7 7 7 7 7 7 7 7 6 5 5 4 4 4 4 3 3 4 3 3 3 2 2 2 2 3 2
4 6 7 6 7 7 7 6 6 7 8 8 7 7 7 7 7 7 7 7 7 7 7 7 6 6 5 4 4 4 4 4 4 3 4 3 3 2 2 3 2 2 2
2 3 4 6 6 5 6 6 6 6 7 8 7 7 7 7 7 7 7 7 7 7 7 7 7 6 5 4 4 4 4 4 4 3 3 3 3 3 3 3 3 2 2
0 1 3 3 4 5 5 5 4 6 6 7 8 7 8 7 7 7 7 7 7 7 7 7 6 7 6 6 4 5 4 4 4 3 3 3 3 3 3 2 3 2 1
2 2 3 2 2 3 1 2 4 4 5 5 7 7 8 7 7 7 7 7 7 7 7 7 7 7 7 6 6 5 5 4 4 4 3 3 3 3 3 3 3 2 2
2 1 2 2 3 2 3 -1 1 3 3 3 5 6 7 8 7 6 6 7 8 7 7 7 6 7 6 7 6 6 5 6 4 4 4 3 3 3 3 3 3 3 2
-0 0 0 1 1 1 1 1 -0 1 2 2 3 5 7 7 7 6 6 6 7 7 7 7 6 6 6 7 6 6 6 5 3 5 5 4 4 3 3 3 3 2 2
-2 -1 -1 -0 0 1 0 1 -2 0 2 3 3 3 5 7 7 7 6 6 7 7 7 7 6 6 6 6 6 6 6 5 5 3 4 4 4 4 3 3 3 3 3
-3 -2 -1 0 1 1 0 -0 -2 -0 1 3 4 4 4 5 7 7 7 7 7 7 7 7 6 6 6 6 6 6 6 6 6 5 5 3 5 4 4 3 3 3 3

GFSSE_700_temp_147.txt.gz
Temp
11 11 12 12 12 11 11 11 11 11 11 10 9 9 8 8 7 7 7 7 7 7 7 6 6 6 6 6 6 6 6 5 6 6 6 7 6 6 6 5 4 5 5
11 12 12 12 11 11 11 12 11 11 11 10 10 9 8 8 8 7 7 7 7 7 6 6 6 6 6 6 6 5 5 5 5 6 6 6 6 5 5 5 4 4 4
12 12 12 12 11 11 11 12 11 11 11 10 10 9 8 8 8 8 7 7 7 6 6 6 6 6 6 6 5 5 5 5 6 6 6 6 6 5 5 4 3 4 4
12 12 12 11 11 11 11 11 11 11 11 10 10 9 9 8 8 8 8 7 7 6 6 6 6 6 6 6 5 5 5 5 5 6 6 6 6 5 5 4 4 4 4
12 11 11 11 11 11 11 11 11 11 11 10 10 9 9 8 8 7 7 7 7 6 6 6 6 6 6 5 5 5 5 5 5 5 5 5 5 5 5 4 4 5 5
11 12 11 11 11 11 11 11 11 11 11 10 10 9 9 9 8 8 7 7 7 7 6 6 6 6 5 5 5 5 5 5 5 5 5 5 5 5 5 4 5 5 5
11 11 11 11 10 11 11 11 11 11 11 10 10 10 10 9 9 8 7 7 7 7 6 6 6 5 5 5 5 5 5 4 5 5 5 5 5 5 5 4 5 4 4
11 11 11 10 10 11 10 11 11 11 10 10 10 10 10 9 9 9 8 7 7 7 6 6 6 5 5 5 5 5 5 5 4 4 4 4 4 4 4 4 4 4 4
9 10 11 10 10 10 10 10 10 10 10 10 10 10 9 9 9 9 9 8 7 7 6 6 6 5 5 5 5 5 5 4 4 4 3 4 4 4 4 4 4 4 4
9 9 10 10 9 10 10 10 10 10 10 10 10 10 9 9 9 9 9 8 7 7 6 6 5 5 5 5 4 4 5 5 4 4 4 4 4 3 3 4 4 4 4
8 9 9 9 10 9 9 10 10 10 9 9 9 9 9 9 9 9 9 8 8 7 7 6 6 5 5 5 4 4 5 4 4 4 4 4 4 4 4 4 4 4 4
7 7 8 9 9 8 8 8 9 9 9 9 9 9 9 9 9 9 9 9 8 8 7 7 6 5 5 5 5 4 4 5 4 4 3 3 3 4 4 4 4 4 4
6 6 5 6 7 8 8 8 8 8 9 9 9 8 8 8 9 9 9 9 8 8 8 7 6 6 5 5 4 4 4 4 4 3 2 3 3 3 4 4 4 4 4
7 7 7 7 7 7 8 7 7 8 8 8 9 8 8 8 8 8 8 8 8 8 8 7 7 6 6 5 5 4 4 4 3 4 4 3 3 3 3 3 4 4 4
8 8 8 8 7 7 7 8 7 8 8 8 8 8 8 8 7 8 8 8 8 8 8 8 7 6 6 5 6 5 4 4 4 4 3 4 3 3 3 4 4 3 4
7 7 8 8 8 7 6 7 7 7 8 8 8 8 8 8 7 7 8 8 8 8 8 8 8 7 6 6 5 5 4 5 5 4 4 3 3 3 3 3 3 3 3
6 6 6 6 6 7 7 6 7 7 7 8 8 8 8 8 7 7 7 7 8 8 8 8 8 7 6 6 5 5 4 5 4 4 4 3 4 4 4 3 3 3 3
4 4 5 5 6 6 7 7 6 6 7 6 7 8 7 8 7 7 7 7 7 8 8 8 9 7 7 6 5 5 5 4 4 4 4 4 4 4 3 3 3 3 3
4 5 5 5 6 7 7 7 7 6 6 6 6 7 8 7 7 7 7 7 7 7 8 8 8 8 7 6 5 5 5 4 4 4 4 4 3 4 4 3 3 3 3
4 4 4 3 3 3 4 5 6 7 6 6 6 6 6 7 6 7 6 7 7 7 7 7 7 8 8 6 5 5 5 5 5 5 4 4 4 4 4 3 3 3 3
3 3 3 3 3 2 3 4 4 5 5 6 5 5 5 6 6 6 6 7 7 7 7 7 7 7 7 7 6 6 5 5 5 4 5 4 4 3 3 3 3 3 3
3 2 2 2 2 2 3 4 4 5 5 6 6 6 4 3 6 6 6 6 7 7 6 7 7 7 7 7 7 6 6 6 5 5 5 4 4 3 3 3 3 3 3
2 2 2 2 2 2 2 3 4 5 5 5 5 6 5 4 3 5 5 5 6 6 6 7 7 7 7 7 7 7 7 7 6 6 6 5 5 5 4 3 3 3 3
1 1 1 2 1 2 2 2 2 2 3 3 3 4 6 4 4 3 4 4 4 5 6 6 7 7 6 6 7 6 6 6 6 6 6 6 6 6 5 4 4 3 3
1 1 1 1 1 1 1 -0 0 1 1 2 2 3 3 4 3 4 4 4 5 5 5 6 6 6 6 6 7 6 6 6 6 6 6 6 6 6 6 6 5 4 4
1 1 1 1 0 0 -0 -1 0 1 1 1 1 2 3 3 2 2 3 4 3 1 4 6 6 6 6 6 7 6 6 6 7 7 6 6 6 6 6 6 6 5 4

GFSSE_700_temp_153.txt.gz
Temp
11 10 10 10 10 11 11 10 10 11 11 11 11 10 10 9 9 9 8 8 7 7 7 7 7 6 6 6 6 6 6 5 6 6 6 6 6 6 6 6 5 5 4
11 11 11 11 10 10 11 10 10 11 11 11 10 10 10 10 9 9 8 8 7 7 7 7 7 6 6 6 6 6 6 5 6 5 6 6 6 6 6 5 5 5 5
10 11 11 11 10 10 11 10 10 10 11 10 10 10 10 10 9 9 9 8 8 7 6 7 6 6 6 6 5 5 5 5 5 5 6 6 6 6 5 5 4 4 4
10 10 10 11 10 10 10 10 10 10 10 10 10 10 10 10 9 9 8 8 8 7 6 6 6 6 6 6 6 5 5 5 5 5 5 6 6 5 5 4 4 4 4
10 10 10 10 10 10 10 10 9 10 10 10 10 10 10 10 9 9 8 8 8 8 7 6 6 6 6 6 6 5 5 5 5 5 5 5 5 5 5 4 4 4 4
9 9 9 9 9 10 10 9 10 10 10 10 9 9 9 9 9 9 8 8 8 8 7 7 6 6 6 6 6 5 5 5 5 5 5 5 5 5 4 4 4 3 3
9 9 9 9 9 9 9 9 9 10 9 9 9 9 9 9 9 8 8 8 8 7 7 7 6 6 5 5 5 5 5 5 5 5 5 5 5 5 4 4 4 4 4
9 9 9 9 10 9 9 9 9 9 9 9 9 9 9 9 9 9 8 8 8 7 7 7 6 6 5 5 5 5 5 5 5 5 4 5 5 5 4 4 4 4 4
8 8 9 9 9 9 9 9 8 8 9 9 9 9 9 9 8 8 8 8 8 7 7 6 6 6 5 5 5 5 5 4 4 4 4 4 4 4 4 3 4 4 4
8 8 8 8 8 8 9 9 9 9 9 9 8 8 8 8 8 8 8 7 7 7 7 7 6 6 5 5 5 5 5 4 4 4 4 4 4 4 4 4 3 4 4
7 8 8 8 8 8 8 8 8 8 8 9 9 9 9 8 8 8 8 7 7 7 7 7 6 6 5 5 5 5 5 4 4 4 4 4 4 4 4 4 4 4 4
8 7 7 8 8 7 7 7 7 7 7 8 8 9 9 9 8 8 8 8 7 7 7 7 7 6 6 5 5 5 5 4 4 4 4 4 4 4 4 4 4 3 4
8 7 7 7 7 7 7 7 7 6 7 7 7 7 8 8 9 8 7 8 8 7 7 7 7 6 6 5 5 5 5 4 4 4 4 4 4 4 4 3 3 4 4
7 7 7 6 6 6 6 7 7 7 7 7 7 7 7 8 8 8 8 7 7 7 7 7 7 6 6 5 6 6 5 4 4 4 4 4 3 3 3 2 3 4 4
7 6 6 6 6 6 6 6 6 6 7 7 7 6 6 7 7 8 8 7 7 7 7 7 7 6 6 6 5 6 6 5 4 4 4 3 3 3 3 3 4 4 4
6 5 5 5 5 6 6 6 6 6 6 6 7 7 7 6 6 6 7 7 7 7 7 7 7 7 6 6 5 5 6 5 4 4 4 4 3 3 3 3 3 4 4
4 4 5 5 5 6 6 6 6 6 6 6 6 6 6 7 7 6 6 7 7 7 6 6 7 7 7 6 6 6 6 5 4 4 4 4 4 4 3 3 3 3 3
5 5 5 5 5 5 5 6 6 6 6 6 6 6 6 6 6 7 7 6 6 7 5 5 6 6 7 6 6 6 6 5 5 4 4 4 3 3 3 3 3 3 3
5 5 4 4 4 4 5 5 6 6 6 6 6 7 6 6 6 6 6 7 6 5 6 5 5 5 6 6 6 6 6 5 5 4 4 4 3 3 3 3 3 3 3
5 4 4 4 4 4 5 5 6 6 6 6 6 6 6 6 5 5 6 6 6 5 5 5 5 5 5 6 5 6 5 4 4 4 4 4 4 3 3 3 3 3 3
4 4 4 4 3 4 5 6 5 5 5 5 5 5 5 5 5 5 5 5 5 6 5 4 5 5 5 5 4 3 5 4 4 4 4 4 4 3 3 3 3 3 3
4 4 3 3 4 5 5 5 5 5 5 4 4 5 5 5 5 5 5 4 4 4 5 5 4 4 5 5 4 4 4 4 5 4 4 4 4 3 3 3 3 3 3
4 3 3 3 4 4 4 4 3 3 3 4 5 5 3 2 2 3 4 4 4 4 4 4 4 3 4 5 4 4 4 6 6 5 5 4 4 4 4 3 3 3 3
3 3 3 3 4 4 3 3 3 4 4 3 4 3 2 2 2 2 2 2 4 4 4 4 4 4 3 5 4 4 4 4 6 6 5 4 4 4 4 4 3 3 2
2 3 3 3 3 3 2 2 3 3 3 3 3 2 2 2 2 1 2 2 2 3 3 2 3 4 4 3 5 4 4 5 6 5 5 5 5 4 4 4 3 2 2
2 2 3 3 2 1 1 2 2 3 2 3 3 2 2 2 3 2 1 1 1 2 2 2 2 3 3 3 4 4 4 5 6 6 6 5 5 6 4 4 4 3 3

GFSSE_700_temp_156.txt.gz
Temp
10 10 10 10 10 9 10 10 9 10 10 10 10 9 9 9 9 9 9 8 8 8 8 7 6 6 6 6 6 6 6 5 6 6 6 6 6 6 6 6 5 5 5
11 11 10 10 10 9 9 9 10 9 10 9 9 9 9 9 8 8 8 8 8 8 7 7 7 6 6 6 6 6 6 6 6 6 6 6 6 6 6 6 5 5 4
10 10 10 9 10 9 9 9 9 9 9 9 9 9 9 9 9 8 8 8 7 8 7 7 7 6 6 6 6 6 6 5 6 6 5 5 5 6 6 5 5 5 4
10 10 10 10 9 9 9 9 9 9 9 9 9 9 9 9 9 9 8 8 7 7 7 7 7 6 6 6 6 6 6 5 5 5 5 5 5 5 5 5 4 4 4
10 9 9 9 9 9 8 8 8 9 9 9 9 9 9 9 9 8 8 8 8 7 7 7 6 6 6 6 6 6 5 5 5 5 5 5 5 5 5 5 4 4 4
10 9 9 9 9 9 9 9 8 8 8 9 9 9 9 8 8 8 8 8 7 7 7 7 6 6 6 6 6 5 5 5 5 5 5 5 4 5 5 5 4 4 3
8 9 9 8 9 9 9 9 9 8 9 8 8 8 8 8 8 8 8 8 8 7 7 7 6 6 6 6 6 5 5 5 5 5 5 4 4 4 4 4 4 4 3
8 8 8 8 8 8 9 8 9 9 9 10 9 9 8 8 8 8 8 8 8 7 7 6 6 6 6 6 5 5 5 5 5 4 4 4 4 4 4 4 4 4 3
8 8 8 8 8 8 8 8 8 8 8 9 9 9 9 9 8 8 8 8 8 7 7 7 6 6 6 6 5 5 5 4 4 4 4 4 4 4 4 4 4 4 3
8 8 8 8 8 8 8 8 8 7 7 8 8 8 8 9 9 9 8 8 8 8 7 6 6 6 6 6 5 5 5 4 4 4 4 4 4 4 4 4 4 4 4
7 7 8 8 8 8 7 7 7 6 7 7 7 8 8 8 8 9 9 8 8 8 7 7 6 6 6 6 6 5 5 5 4 4 4 4 4 3 3 4 3 3 4
7 7 7 7 8 7 7 7 7 6 6 6 6 6 7 7 8 8 8 8 8 7 8 7 7 6 6 6 6 6 5 4 5 4 4 4 4 4 4 4 3 3 3
7 7 7 6 6 7 7 7 7 7 7 6 6 6 6 6 6 7 8 7 8 8 7 7 7 7 6 6 6 6 5 5 4 4 4 4 4 4 4 4 3 4 4
6 6 6 6 6 6 6 6 6 6 7 7 7 7 7 6 6 6 6 7 7 8 8 7 7 7 7 6 6 6 6 5 4 4 4 4 4 4 3 4 3 3 3
6 6 6 5 5 5 6 6 6 6 6 6 7 7 7 7 7 6 6 6 7 7 7 7 7 7 7 7 7 6 6 6 5 4 4 4 4 4 3 4 3 3 3
6 5 5 5 5 5 5 6 6 6 6 6 6 6 6 7 7 7 7 6 6 6 7 7 7 7 7 7 7 7 6 6 5 4 4 4 4 4 3 3 4 3 3
5 5 5 5 5 5 5 5 5 6 6 6 6 6 6 7 7 7 8 7 6 6 5 6 7 6 6 7 7 7 6 6 6 5 4 4 4 4 4 3 4 3 3
5 5 4 4 4 4 5 5 5 5 6 6 7 7 6 6 7 8 8 7 7 7 6 5 6 6 5 5 7 7 7 6 6 5 4 4 4 4 4 4 4 4 3
4 5 5 4 4 5 5 5 5 5 6 6 6 6 6 6 6 6 6 7 7 7 7 6 5 5 5 5 6 7 7 7 6 6 5 4 4 4 4 4 4 3 3
4 4 4 4 5 5 5 5 5 5 6 6 6 6 7 7 6 6 6 5 5 6 6 6 6 5 5 5 5 6 7 7 6 6 5 4 4 4 4 4 3 3 3
3 4 4 4 4 4 4 4 5 5 5 5 5 5 5 5 5 5 6 6 5 5 5 5 5 5 4 4 4 4 5 7 7 7 5 4 4 4 4 4 4 3 3
4 4 4 4 4 3 4 4 5 5 5 5 5 4 3 3 4 4 4 4 4 4 4 4 4 4 4 3 4 4 4 6 7 7 6 5 4 4 4 4 3 3 3
3 3 3 3 3 3 3 4 4 4 5 5 4 4 4 4 3 4 2 2 2 3 3 2 3 3 3 4 3 3 3 5 7 7 7 5 4 4 4 4 4 3 3
3 2 2 2 2 3 3 4 4 4 5 5 4 4 3 3 3 4 2 1 2 2 2 2 2 2 3 3 3 3 3 4 5 7 7 6 5 4 4 4 4 3 3
1 1 1 2 2 2 3 4 4 4 4 4 3 3 3 3 3 3 1 1 1 2 2 2 2 2 2 3 3 3 3 3 4 6 7 6 6 5 5 4 4 4 4
0 0 1 1 2 3 3 3 3 3 3 3 3 3 3 3 3 1 0 1 2 1 1 1 2 1 2 2 4 2 3 3 4 5 7 7 6 5 4 4 4 4 4

GFSSE_700_temp_162.txt.gz
Temp
10 10 9 9 9 9 8 8 8 8 9 9 10 10 10 9 9 9 9 9 8 7 7 7 7 6 6 6 6 6 6 6 6 6 6 6 6 6 6 6 6 6 6
10 10 10 10 9 9 8 8 8 8 9 9 9 10 10 9 9 9 9 9 8 8 7 7 7 6 6 6 6 6 6 6 6 6 5 6 6 6 6 6 6 6 6
10 10 9 9 9 9 9 8 8 9 9 9 9 9 9 9 9 9 9 9 9 8 8 7 7 6 6 6 6 6 6 6 6 5 5 5 6 6 6 6 6 5 5
9 9 8 8 8 8 8 8 8 9 9 9 9 10 10 9 9 9 9 9 9 8 8 8 7 7 6 6 6 6 6 6 5 5 5 5 5 5 5 5 5 5 5
8 8 8 8 8 8 8 8 7 8 8 9 9 9 10 10 10 9 9 9 9 9 9 8 8 7 7 6 6 6 5 5 5 5 5 5 5 5 5 5 5 5 5
8 8 8 8 8 8 7 7 7 7 8 8 8 9 9 9 10 9 9 9 9 9 9 9 8 8 7 7 6 6 5 5 5 5 5 5 5 5 5 5 5 5 4
7 7 7 8 8 8 8 7 7 7 7 7 7 8 8 8 9 9 9 9 9 9 9 9 9 8 8 7 6 6 5 5 5 5 5 5 5 5 5 5 4 4 4
7 7 7 7 7 8 7 7 7 7 7 7 7 7 8 8 8 8 9 9 9 9 9 9 9 9 8 7 7 6 6 5 5 5 5 5 5 4 4 4 4 4 4
7 7 7 7 7 7 7 7 7 7 7 6 6 6 7 7 7 8 8 8 8 8 9 9 8 9 9 8 7 7 6 5 5 5 5 5 5 4 4 4 4 4 4
7 7 7 6 6 6 7 7 7 7 6 6 6 6 6 6 7 7 7 8 8 8 8 8 9 8 8 8 8 8 7 6 5 5 5 4 4 4 4 4 3 3 4
7 6 6 6 6 6 6 6 6 6 6 6 6 6 6 6 6 6 7 7 7 8 8 8 8 8 9 8 8 8 8 7 6 6 5 5 4 4 4 4 3 3 3
6 6 6 5 5 5 5 5 5 6 6 6 7 7 7 7 7 6 6 6 7 7 7 7 8 8 8 8 9 8 8 8 7 6 6 5 4 4 4 4 3 3 3
6 6 5 5 5 5 5 5 5 5 5 6 7 7 7 7 7 7 7 7 7 7 7 7 7 7 7 8 8 8 8 8 8 7 6 6 5 4 4 4 4 4 4
6 5 5 5 5 5 5 5 5 5 6 6 6 7 7 7 7 7 8 7 7 7 7 7 7 7 7 8 8 8 8 8 8 8 7 6 5 5 4 4 4 4 4
5 5 5 5 4 4 4 5 5 5 5 5 6 6 7 7 7 8 8 8 8 8 7 7 7 7 7 7 7 8 8 8 8 8 8 7 6 5 5 4 4 4 3
5 5 5 5 4 4 4 4 4 5 5 5 6 6 6 7 7 7 7 7 8 8 8 8 7 7 7 6 7 7 7 7 7 7 7 7 6 6 6 5 4 4 3
5 5 5 5 4 4 4 4 4 4 4 5 5 5 5 6 6 7 7 7 7 8 8 8 8 8 7 7 6 5 7 7 7 7 7 7 6 6 6 5 4 4 4
5 5 5 4 4 4 4 4 4 4 4 4 4 5 5 6 6 6 7 7 7 7 7 7 8 8 8 7 7 6 6 6 6 7 7 7 7 6 6 6 5 4 4
5 5 4 4 4 3 3 3 4 4 4 4 5 5 5 5 6 6 7 7 7 7 7 7 7 7 7 7 7 7 6 6 6 5 5 6 6 6 6 6 5 4 4
5 4 4 4 3 3 3 3 3 3 4 4 4 4 5 5 6 6 6 6 7 7 6 6 6 6 6 6 6 6 6 6 6 5 5 5 5 6 6 5 5 4 4
4 4 4 4 3 3 2 2 2 2 3 3 3 4 4 5 5 5 6 6 6 6 6 5 5 5 5 5 5 5 5 5 5 5 5 5 5 5 6 5 5 5 4
4 4 4 3 3 2 2 2 2 2 2 3 3 4 4 4 5 5 5 5 5 6 6 5 5 5 5 4 3 3 4 4 4 4 4 5 5 4 5 5 5 5 5
4 3 3 2 2 1 1 1 1 2 2 2 3 3 4 4 4 5 4 5 5 5 5 5 4 4 5 2 2 2 3 3 1 3 4 4 4 4 4 4 5 5 5
3 3 2 1 1 0 0 0 1 1 2 2 3 3 3 4 4 4 4 4 4 4 4 4 4 4 3 1 1 2 2 2 2 2 3 4 4 4 4 3 4 5 5
3 2 1 0 -0 -0 -0 0 0 1 1 2 2 3 3 3 3 3 3 3 3 4 3 3 3 3 2 1 1 2 2 2 2 2 2 2 2 3 3 3 3 4 4
2 1 -0 -0 -1 -1 -0 -0 -0 0 1 1 2 2 2 2 2 2 2 2 3 3 3 3 2 2 1 1 1 2 2 2 2 2 1 2 3 2 3 3 3 4 4

GFSSE_700_temp_165.txt.gz
Temp
11 10 10 10 10 10 9 9 9 8 9 9 9 9 9 9 9 9 9 9 9 8 8 8 7 7 7 6 6 6 6 6 6 6 6 6 6 6 6 6 6 7 6
10 10 10 10 9 9 9 8 8 8 8 9 9 9 9 9 9 9 9 9 9 9 8 8 8 7 7 7 6 6 6 6 6 6 6 6 6 6 6 6 6 6 6
10 9 9 9 9 8 8 8 8 8 8 9 9 9 9 9 9 9 9 9 9 9 8 9 8 7 7 7 7 6 6 6 6 6 6 6 6 6 6 6 6 6 6
9 9 9 8 8 8 8 8 7 7 8 8 8 9 9 9 9 9 9 9 9 9 9 9 9 8 8 7 7 6 6 6 6 6 6 6 5 6 5 6 6 6 5
9 8 8 8 8 8 8 8 8 7 7 8 8 8 8 8 8 9 9 9 9 9 9 9 9 9 8 8 7 7 6 6 6 6 6 5 5 6 5 5 5 5 5
8 8 8 8 8 8 8 7 8 7 7 7 7 7 8 8 8 8 8 8 9 9 9 9 9 9 9 8 8 7 7 6 6 6 5 6 5 5 5 5 5 5 5
8 8 7 8 8 8 8 7 7 7 7 7 6 7 7 7 7 8 8 8 8 8 9 9 9 9 9 9 8 8 8 7 6 6 6 5 5 5 5 5 5 5 5
8 7 7 7 8 8 7 7 7 7 7 7 6 6 6 6 7 7 7 8 8 8 8 8 9 9 8 8 8 8 8 8 7 6 6 5 5 5 5 5 5 4 5
7 7 7 8 8 8 7 7 7 7 7 6 6 6 6 6 6 7 7 7 8 8 8 8 8 8 9 8 8 8 8 8 7 7 6 5 6 5 5 5 4 4 4
7 7 7 7 7 7 7 7 7 7 7 7 7 7 6 6 6 6 6 7 7 7 8 7 7 8 8 8 8 8 8 8 8 7 7 6 6 5 5 4 4 4 3
7 7 7 7 6 7 7 6 7 7 7 7 7 7 7 7 7 7 6 6 7 7 7 7 7 7 7 8 8 8 8 8 8 8 7 6 6 5 5 4 4 4 3
7 7 6 6 6 6 6 6 6 6 6 6 7 7 7 7 7 7 7 7 7 7 7 6 7 7 7 7 7 8 8 8 8 8 6 7 7 6 6 5 4 4 4
7 6 6 6 6 6 5 5 5 5 6 6 6 7 7 7 7 7 7 7 7 7 7 7 7 7 7 7 7 5 8 8 8 7 6 7 6 5 6 5 4 4 4
6 6 5 5 5 5 5 5 5 5 5 6 6 6 7 7 7 8 8 7 7 7 7 7 7 7 6 7 6 7 6 6 7 7 6 7 7 6 6 6 5 4 4
6 5 5 5 5 4 4 5 5 5 5 5 6 6 6 7 7 8 8 8 8 8 8 8 8 7 7 7 7 7 7 6 6 7 7 7 7 6 6 5 5 4 4
5 5 5 5 5 5 4 4 4 5 5 5 5 6 6 6 7 7 7 7 8 8 8 8 8 8 7 7 7 7 7 6 7 6 6 7 7 7 6 6 4 5 4
5 5 5 5 5 4 4 4 4 4 4 5 5 5 5 6 6 7 7 7 7 7 7 8 8 8 8 8 8 7 7 7 6 6 6 6 6 7 6 6 6 5 4
5 5 5 5 5 4 4 4 3 3 4 4 4 4 5 5 5 6 6 6 7 7 7 7 7 8 7 7 8 8 7 7 7 7 6 6 5 5 7 6 6 5 4
5 5 5 5 4 4 4 4 3 3 4 4 4 4 4 5 5 6 6 6 6 6 7 7 7 7 7 7 7 7 8 8 7 7 6 5 5 5 3 5 5 6 5
5 5 5 4 4 4 4 4 3 3 3 3 3 4 4 4 5 5 5 6 6 6 6 6 7 6 6 6 6 7 7 7 7 6 6 5 5 5 4 4 4 6 6
4 4 4 4 4 3 3 3 3 3 2 2 3 3 3 4 4 4 5 5 5 6 6 6 6 6 5 5 5 6 6 6 6 5 5 5 5 4 4 4 4 4 5
4 4 4 4 3 3 2 2 2 2 1 2 2 2 3 3 4 4 4 4 5 5 5 5 5 5 5 5 5 5 6 6 5 4 4 4 4 4 4 4 3 4 5
4 4 3 3 3 2 2 2 1 1 1 1 2 2 3 3 3 4 4 4 4 4 4 5 5 5 5 4 4 4 5 5 4 3 2 1 2 3 4 4 3 4 4
4 3 3 2 2 1 1 0 0 0 1 1 1 2 2 2 3 3 3 3 3 3 4 4 4 4 4 4 3 3 3 3 2 4 3 2 2 3 3 3 3 3 3
3 3 2 2 1 0 -0 -0 -0 -0 0 0 1 1 1 2 2 2 2 3 3 3 3 3 3 3 3 3 2 2 2 1 1 2 3 4 2 2 3 3 3 3 3
3 2 1 1 0 -1 -1 -1 -1 -1 -1 -0 0 1 1 1 1 2 2 2 2 2 2 3 3 2 2 2 1 1 1 1 2 1 1 2 3 3 2 2 3 3 3

GFSSE_700_temp_168.txt.gz
Temp
11 10 10 10 10 10 9 9 9 9 9 9 9 9 9 10 10 10 10 10 9 9 9 8 8 8 7 7 7 6 6 6 6 6 6 6 6 6 6 6 6 6 7
10 10 10 10 10 9 9 8 8 8 8 8 8 9 9 9 9 9 9 9 9 9 8 8 8 8 7 7 7 6 6 6 6 6 6 6 6 6 6 6 6 6 6
10 10 10 10 10 9 9 9 8 8 7 8 8 8 8 9 9 9 9 9 9 9 8 8 8 8 8 7 7 7 6 6 6 6 6 6 6 6 6 6 6 6 6
11 10 10 9 9 9 9 9 9 8 7 7 7 8 8 8 8 8 8 9 9 9 9 9 8 8 8 8 7 7 7 7 6 6 6 6 6 5 6 6 6 6 6
10 10 9 9 9 9 9 9 9 8 7 7 7 7 8 8 8 8 8 8 8 8 9 9 8 8 8 8 8 8 7 7 6 6 6 6 6 6 6 6 6 6 6
10 9 9 9 8 8 8 9 9 8 8 7 7 7 7 7 7 8 8 8 8 8 8 8 9 8 8 8 8 8 8 8 7 7 6 6 6 6 6 6 6 5 5
9 9 9 9 9 8 9 9 8 8 8 8 7 7 7 7 7 7 7 8 8 8 8 8 8 8 8 8 8 8 8 8 8 7 6 6 6 6 6 5 5 5 5
9 9 9 9 8 8 8 8 8 8 8 8 8 7 7 7 7 7 7 7 8 8 8 8 8 8 8 8 8 8 8 8 7 7 7 7 6 6 5 5 5 5 5
9 9 8 8 8 8 8 8 8 8 8 8 8 8 7 7 7 7 7 7 7 7 8 8 8 8 8 8 8 8 8 8 7 7 7 6 7 6 5 5 5 5 5
8 8 8 8 8 8 8 8 8 7 8 7 8 8 8 8 7 7 7 7 7 7 7 7 7 8 8 8 8 8 7 7 7 7 7 6 7 6 6 5 5 5 5
8 8 8 8 7 7 7 7 7 7 7 7 7 7 8 8 8 7 8 7 7 7 7 6 7 7 7 7 7 7 7 7 7 7 7 7 7 5 5 5 5 4 4
8 8 7 7 7 7 6 6 6 6 6 6 7 7 7 8 7 8 8 8 8 7 7 7 7 7 7 7 7 7 7 7 7 7 7 7 6 7 5 5 5 4 4
8 7 7 6 6 6 6 5 5 5 5 6 6 6 7 7 8 8 8 8 8 8 8 8 7 7 7 7 6 7 8 8 6 6 7 5 5 6 6 5 5 5 4
7 7 7 6 6 5 5 5 5 5 5 5 6 6 6 7 7 7 8 8 8 8 8 8 8 8 8 8 7 7 6 6 6 5 5 6 6 5 5 5 6 5 4
7 6 6 6 5 5 5 5 5 5 5 5 6 5 6 6 6 7 7 8 8 8 8 8 8 8 8 8 8 8 7 7 6 5 4 5 6 5 5 5 5 6 5
7 6 6 5 5 5 4 4 4 4 5 5 5 5 5 6 6 6 7 7 7 7 8 8 8 8 8 8 8 8 8 8 7 6 6 5 6 6 6 5 6 6 5
6 6 6 5 5 5 4 4 4 4 4 4 5 5 5 5 6 6 6 7 7 7 7 8 8 8 8 8 8 8 7 7 7 7 6 6 5 6 6 5 5 5 6
6 5 5 5 5 5 4 4 4 4 4 4 4 5 5 5 5 5 6 6 6 6 7 7 7 7 7 7 8 8 8 8 7 7 7 6 6 5 5 5 5 4 4
6 5 5 5 5 4 4 4 4 4 4 4 4 4 4 4 4 4 5 5 5 6 6 6 6 7 7 7 7 7 7 8 8 7 7 6 5 5 5 5 4 4 4
6 5 5 5 5 4 4 4 4 4 4 4 4 4 3 3 4 4 4 5 5 5 5 6 6 6 6 7 7 7 7 7 7 7 7 7 6 6 5 4 4 4 4
6 5 5 4 4 4 4 4 4 4 3 3 3 3 3 3 3 4 4 4 4 5 5 5 5 5 5 6 6 7 7 7 6 7 7 6 6 5 5 5 3 4 3
5 5 4 4 4 4 4 3 3 3 3 2 2 2 2 2 2 3 3 4 4 4 4 4 4 5 5 5 6 6 7 6 6 6 6 7 6 4 4 4 4 3 3
5 5 4 4 4 3 3 3 2 2 2 2 1 1 1 2 2 2 3 3 3 3 3 4 4 4 4 4 4 4 5 6 6 5 5 4 4 3 3 3 3 2 3
5 5 4 3 3 3 2 2 1 1 0 0 0 1 1 1 1 2 2 2 2 2 3 3 3 3 3 4 3 3 3 4 5 7 6 3 2 2 2 2 3 2 2
5 4 4 3 3 2 2 1 0 -0 -1 -0 -0 -0 0 0 1 1 1 1 1 2 2 2 2 2 2 2 2 2 2 2 2 3 6 5 4 2 2 2 3 3 2
4 3 3 2 2 1 0 -0 -1 -1 -1 -1 -1 -1 -1 -0 -0 -0 0 1 1 1 1 1 1 1 2 2 1 1 2 1 1 1 3 4 4 4 3 2 2 3 3